This is the latest recevied weather packets stored in our database for station/object N1YZ. If no packets are shown the sender has not sent any weather packets the latest 10 day(s).
| Time | Temp. | Humidity | Pressure | Rain* | Wind** | Luminosity | Snow |
|---|---|---|---|---|---|---|---|
| 1788034813 | 31.11° C | 65% | 1037 hPa | 0 mm | - | 399 W/m² | - |
| 1788034513 | 31.67° C | 67% | 1037.1 hPa | 0 mm | - | 56 W/m² | - |
| 1788034205 | 31.67° C | 65% | 1036.9 hPa | 0 mm | - | 61 W/m² | - |
| 1788033903 | 32.22° C | 66% | 1037.2 hPa | 0 mm | - | 102 W/m² | - |
| 1788033603 | 32.22° C | 67% | 1037 hPa | 0 mm | - | 135 W/m² | - |
| 1788033297 | 31.67° C | 66% | 1037.1 hPa | 0 mm | - | 135 W/m² | - |
| 1788032994 | 32.22° C | 68% | 1037.2 hPa | 0 mm | - | 90 W/m² | - |
| 1788032693 | 32.22° C | 65% | 1037.1 hPa | 0 mm | - | 86 W/m² | - |
| 1788032388 | 31.67° C | 66% | 1037.4 hPa | 0 mm | - | 103 W/m² | - |
| 1788032083 | 31.67° C | 65% | 1037.5 hPa | 0 mm | - | 290 W/m² | - |
| 1788031778 | 31.11° C | 71% | 1037.4 hPa | 0 mm | - | 89 W/m² | - |
| 1788031473 | 31.11° C | 68% | 1037.6 hPa | 0 mm | - | 230 W/m² | - |
| 1788031168 | 31.67° C | 69% | 1037.5 hPa | 0 mm | - | 65 W/m² | - |
| 1788030867 | 31.67° C | 69% | 1037.4 hPa | 0 mm | - | 97 W/m² | - |
| 1788030561 | 31.67° C | 70% | 1037.5 hPa | 0 mm | - | 85 W/m² | - |
| 1788030256 | 31.67° C | 69% | 1037.6 hPa | 0 mm | - | 566 W/m² | - |
| 1788029951 | 32.22° C | 70% | 1037.7 hPa | 0 mm | - | 201 W/m² | - |
| 1788029646 | 32.22° C | 70% | 1037.9 hPa | 0 mm | - | 661 W/m² | - |
| 1788029342 | 32.22° C | 68% | 1037.9 hPa | 0 mm | - | 679 W/m² | - |
| 1788029040 | 32.22° C | 65% | 1037.5 hPa | 0 mm | - | 704 W/m² | - |
| 1788028740 | 32.22° C | 68% | 1037.9 hPa | 0 mm | - | 678 W/m² | - |
| 1788028435 | 32.78° C | 69% | 1037.9 hPa | 0 mm | - | 600 W/m² | - |
| 1788028130 | 32.78° C | 69% | 1038.1 hPa | 0 mm | - | 444 W/m² | - |
| 1788027825 | 32.22° C | 69% | 1038.1 hPa | 0 mm | - | 695 W/m² | - |
| 1788027524 | 32.22° C | 65% | 1038.2 hPa | 0 mm | - | 702 W/m² | - |
* Rain latest hour (hover to see other rain measurements)
** Current wind speed in m/s (hover to see current wind gust speed)